Time,TemperatureF,DewpointF,PressureIn,WindDirection,WindDirectionDegrees,WindSpeedMPH,WindSpeedGustMPH,Humidity,HourlyPrecipIn,Conditions,Clouds,dailyrainin,SoftwareType,DateUTC
2013-12-02 00:01:00,47.1,39.6,30.01,WSW,237,0.0,0.0,75,0.00,,---,0.00,VWS V14.01,2013-12-02 05:01:00,
2013-12-02 00:02:00,47.1,39.6,30.01,WSW,237,0.0,0.0,75,0.00,,---,0.00,VWS V14.01,2013-12-02 05:02:00,
2013-12-02 00:05:00,47.5,39.3,30.02,WSW,237,0.0,0.0,73,0.00,,---,0.00,VWS V14.01,2013-12-02 05:05:00,
2013-12-02 00:07:00,47.1,39.9,30.00,WSW,237,0.0,0.0,76,0.00,,---,0.00,VWS V14.01,2013-12-02 05:07:00,
2013-12-02 00:10:00,47.3,39.8,30.02,WSW,237,0.0,0.0,75,0.00,,---,0.00,VWS V14.01,2013-12-02 05:10:00,
2013-12-02 00:12:00,46.9,40.1,30.00,WSW,237,0.0,0.0,77,0.00,,---,0.00,VWS V14.01,2013-12-02 05:12:00,
2013-12-02 00:15:00,47.2,40.0,30.02,WSW,237,0.0,0.0,76,0.00,,---,0.00,VWS V14.01,2013-12-02 05:15:00,
2013-12-02 00:17:00,46.8,40.0,30.00,WSW,237,0.0,0.0,77,0.00,,---,0.00,VWS V14.01,2013-12-02 05:17:00,
2013-12-02 00:20:00,47.1,40.3,30.02,WSW,237,0.0,0.0,77,0.00,,---,0.00,VWS V14.01,2013-12-02 05:20:00,
2013-12-02 00:22:00,46.8,39.7,30.00,WSW,237,0.0,0.0,76,0.00,,---,0.00,VWS V14.01,2013-12-02 05:22:00,
2013-12-02 00:25:00,46.9,40.1,30.01,WSW,237,0.0,0.0,77,0.00,,---,0.00,VWS V14.01,2013-12-02 05:25:00,
2013-12-02 00:27:00,47.0,40.2,30.00,WSW,237,0.0,0.0,77,0.00,,---,0.00,VWS V14.01,2013-12-02 05:27:00,
2013-12-02 00:30:00,46.9,40.1,30.01,WSW,237,0.0,0.0,77,0.00,,---,0.00,VWS V14.01,2013-12-02 05:30:00,
2013-12-02 00:32:00,46.9,40.1,30.00,WSW,237,0.0,0.0,77,0.00,,---,0.00,VWS V14.01,2013-12-02 05:32:00,
2013-12-02 00:35:00,46.9,39.7,30.01,WSW,237,0.0,0.0,76,0.00,,---,0.00,VWS V14.01,2013-12-02 05:35:00,
2013-12-02 00:37:00,46.8,39.7,29.99,WSW,237,0.0,1.0,76,0.00,,---,0.00,VWS V14.01,2013-12-02 05:37:00,
2013-12-02 00:40:00,46.9,39.4,30.01,WSW,237,0.0,0.0,75,0.00,,---,0.00,VWS V14.01,2013-12-02 05:40:00,
2013-12-02 00:42:00,46.9,40.7,29.99,WSW,240,0.0,0.0,79,0.00,,---,0.00,VWS V14.01,2013-12-02 05:42:00,
2013-12-02 00:45:00,46.9,39.4,30.01,WSW,237,0.0,0.0,75,0.00,,---,0.00,VWS V14.01,2013-12-02 05:45:00,
2013-12-02 00:47:00,47.0,39.5,29.99,West,272,0.0,1.0,75,0.00,,---,0.00,VWS V14.01,2013-12-02 05:47:00,
2013-12-02 00:50:00,46.9,39.7,30.01,WSW,237,0.0,0.0,76,0.00,,---,0.00,VWS V14.01,2013-12-02 05:50:00,
2013-12-02 00:52:00,47.2,40.0,29.99,WSW,248,0.0,1.0,76,0.00,,---,0.00,VWS V14.01,2013-12-02 05:52:00,
2013-12-02 00:55:00,47.0,39.5,30.01,WSW,237,0.0,0.0,75,0.00,,---,0.00,VWS V14.01,2013-12-02 05:55:00,
2013-12-02 00:57:00,47.1,40.3,29.99,WSW,248,0.0,0.0,77,0.00,,---,0.00,VWS V14.01,2013-12-02 05:57:00,
2013-12-02 01:00:00,47.1,39.9,30.00,WSW,237,0.0,0.0,76,0.00,,---,0.00,VWS V14.01,2013-12-02 06:00:00,
2013-12-02 01:02:00,46.9,40.4,29.99,WSW,248,0.0,0.0,78,0.00,,---,0.00,VWS V14.01,2013-12-02 06:02:00,
2013-12-02 01:05:00,47.1,39.9,30.00,WSW,237,0.0,0.0,76,0.00,,---,0.00,VWS V14.01,2013-12-02 06:05:00,
2013-12-02 01:07:00,46.7,40.5,29.98,WSW,249,0.0,0.0,79,0.00,,---,0.00,VWS V14.01,2013-12-02 06:07:00,
2013-12-02 01:10:00,47.0,40.2,30.00,WSW,237,0.0,0.0,77,0.00,,---,0.00,VWS V14.01,2013-12-02 06:10:00,
2013-12-02 01:12:00,46.5,40.3,29.98,WSW,248,0.0,0.0,79,0.00,,---,0.00,VWS V14.01,2013-12-02 06:12:00,
2013-12-02 01:15:00,46.8,40.0,30.00,WSW,237,0.0,0.0,77,0.00,,---,0.00,VWS V14.01,2013-12-02 06:15:00,
2013-12-02 01:17:00,46.5,40.3,29.98,WSW,248,0.0,0.0,79,0.00,,---,0.00,VWS V14.01,2013-12-02 06:17:00,
2013-12-02 01:20:00,46.8,40.0,30.00,WSW,237,0.0,0.0,77,0.00,,---,0.00,VWS V14.01,2013-12-02 06:20:00,
2013-12-02 01:22:00,46.5,40.3,29.98,WSW,249,0.0,0.0,79,0.00,,---,0.00,VWS V14.01,2013-12-02 06:22:00,
2013-12-02 01:25:00,46.9,39.7,30.00,WSW,237,0.0,0.0,76,0.00,,---,0.00,VWS V14.01,2013-12-02 06:25:00,
2013-12-02 01:27:00,46.4,40.6,29.98,WSW,248,0.0,0.0,80,0.00,,---,0.00,VWS V14.01,2013-12-02 06:27:00,
2013-12-02 01:30:00,47.0,40.5,30.00,WSW,237,0.0,0.0,78,0.00,,---,0.00,VWS V14.01,2013-12-02 06:30:00,
2013-12-02 01:32:00,46.4,40.9,29.98,WSW,249,0.0,0.0,81,0.00,,---,0.00,VWS V14.01,2013-12-02 06:32:00,
2013-12-02 01:35:00,46.8,39.7,29.99,WSW,237,0.0,1.0,76,0.00,,---,0.00,VWS V14.01,2013-12-02 06:35:00,
2013-12-02 01:37:00,46.3,40.5,29.98,WSW,248,0.0,0.0,80,0.00,,---,0.00,VWS V14.01,2013-12-02 06:37:00,
2013-12-02 01:40:00,46.9,40.1,29.99,WSW,237,0.0,1.0,77,0.00,,---,0.00,VWS V14.01,2013-12-02 06:40:00,
2013-12-02 01:42:00,46.3,40.2,29.98,WSW,248,0.0,0.0,79,0.00,,---,0.00,VWS V14.01,2013-12-02 06:42:00,
2013-12-02 01:45:00,46.9,39.7,29.99,WSW,246,0.0,1.0,76,0.00,,---,0.00,VWS V14.01,2013-12-02 06:45:00,
2013-12-02 01:47:00,46.3,41.1,29.97,WSW,249,0.0,0.0,82,0.00,,---,0.00,VWS V14.01,2013-12-02 06:47:00,
2013-12-02 01:52:00,46.1,40.3,29.97,WSW,248,0.0,0.0,80,0.00,,---,0.00,VWS V14.01,2013-12-02 06:52:00,
2013-12-02 01:55:00,47.1,39.6,29.99,WSW,248,0.0,1.0,75,0.00,,---,0.00,VWS V14.01,2013-12-02 06:55:00,
2013-12-02 01:57:00,46.1,40.6,29.97,WSW,248,0.0,0.0,81,0.00,,---,0.00,VWS V14.01,2013-12-02 06:57:00,
2013-12-02 02:00:00,47.0,40.5,29.99,WSW,249,0.0,0.0,78,0.00,,---,0.00,VWS V14.01,2013-12-02 07:00:00,
2013-12-02 02:02:00,46.1,40.6,29.97,West,275,1.0,1.0,81,0.00,,---,0.00,VWS V14.01,2013-12-02 07:02:00,
2013-12-02 02:05:00,46.8,41.0,29.98,WSW,249,0.0,0.0,80,0.00,,---,0.00,VWS V14.01,2013-12-02 07:05:00,
2013-12-02 02:07:00,45.9,41.3,29.97,NW,304,0.0,0.0,84,0.00,,---,0.00,VWS V14.01,2013-12-02 07:07:00,
2013-12-02 02:10:00,46.6,40.5,29.98,WSW,248,0.0,0.0,79,0.00,,---,0.00,VWS V14.01,2013-12-02 07:10:00,
2013-12-02 02:12:00,45.7,41.8,29.97,NW,304,0.0,0.0,86,0.00,,---,0.00,VWS V14.01,2013-12-02 07:12:00,
2013-12-02 02:15:00,46.5,40.7,29.98,WSW,248,0.0,0.0,80,0.00,,---,0.00,VWS V14.01,2013-12-02 07:15:00,
2013-12-02 02:17:00,45.4,41.8,29.97,NW,304,0.0,0.0,87,0.00,,---,0.00,VWS V14.01,2013-12-02 07:17:00,
2013-12-02 02:20:00,46.5,40.3,29.98,WSW,248,0.0,0.0,79,0.00,,---,0.00,VWS V14.01,2013-12-02 07:20:00,
2013-12-02 02:22:00,45.2,41.9,29.97,NW,304,0.0,0.0,88,0.00,,---,0.00,VWS V14.01,2013-12-02 07:22:00,
2013-12-02 02:27:00,45.1,42.1,29.97,NW,304,0.0,0.0,89,0.00,,---,0.00,VWS V14.01,2013-12-02 07:27:00,
2013-12-02 02:32:00,44.9,41.9,29.97,NW,304,0.0,0.0,89,0.00,,---,0.00,VWS V14.01,2013-12-02 07:32:00,
2013-12-02 02:35:00,46.3,40.5,29.98,WSW,249,0.0,0.0,80,0.00,,---,0.00,VWS V14.01,2013-12-02 07:35:00,
2013-12-02 02:37:00,44.9,42.2,29.97,NW,304,0.0,0.0,90,0.00,,---,0.00,VWS V14.01,2013-12-02 07:37:00,
2013-12-02 02:40:00,46.3,40.5,29.98,WSW,248,0.0,0.0,80,0.00,,---,0.00,VWS V14.01,2013-12-02 07:40:00,
2013-12-02 02:42:00,44.9,42.4,29.97,NW,304,0.0,0.0,91,0.00,,---,0.00,VWS V14.01,2013-12-02 07:42:00,
2013-12-02 02:45:00,46.3,40.8,29.98,WSW,248,0.0,0.0,81,0.00,,---,0.00,VWS V14.01,2013-12-02 07:45:00,
2013-12-02 02:47:00,44.8,42.3,29.96,NW,304,0.0,0.0,91,0.00,,---,0.00,VWS V14.01,2013-12-02 07:47:00,
2013-12-02 02:52:00,44.8,42.6,29.97,NW,304,0.0,0.0,92,0.00,,---,0.00,VWS V14.01,2013-12-02 07:52:00,
2013-12-02 02:55:00,46.1,40.6,29.97,WSW,248,0.0,0.0,81,0.00,,---,0.00,VWS V14.01,2013-12-02 07:55:00,
2013-12-02 02:57:00,44.7,42.5,29.96,NW,304,0.0,0.0,92,0.00,,---,0.00,VWS V14.01,2013-12-02 07:57:00,
2013-12-02 03:02:00,44.6,42.4,29.96,SSW,197,0.0,0.0,92,0.00,,---,0.00,VWS V14.01,2013-12-02 08:02:00,
2013-12-02 03:05:00,46.0,41.4,29.97,NW,304,0.0,1.0,84,0.00,,---,0.00,VWS V14.01,2013-12-02 08:05:00,
2013-12-02 03:07:00,44.5,42.3,29.96,SSE,153,0.0,0.0,92,0.00,,---,0.00,VWS V14.01,2013-12-02 08:07:00,
2013-12-02 03:12:00,44.4,42.2,29.96,SSW,211,0.0,0.0,92,0.00,,---,0.00,VWS V14.01,2013-12-02 08:12:00,
2013-12-02 03:17:00,44.5,41.8,29.96,SW,230,0.0,0.0,90,0.00,,---,0.00,VWS V14.01,2013-12-02 08:17:00,
2013-12-02 03:22:00,44.7,42.5,29.96,WSW,242,0.0,1.0,92,0.00,,---,0.00,VWS V14.01,2013-12-02 08:22:00,
2013-12-02 03:27:00,44.7,42.0,29.96,WSW,247,0.0,2.0,90,0.00,,---,0.00,VWS V14.01,2013-12-02 08:27:00,
2013-12-02 03:32:00,44.9,42.2,29.96,WSW,247,0.0,0.0,90,0.00,,---,0.00,VWS V14.01,2013-12-02 08:32:00,
2013-12-02 03:35:00,44.9,41.9,29.97,NW,304,0.0,0.0,89,0.00,,---,0.00,VWS V14.01,2013-12-02 08:35:00,
2013-12-02 03:37:00,44.9,41.9,29.96,WSW,251,0.0,1.0,89,0.00,,---,0.00,VWS V14.01,2013-12-02 08:37:00,
2013-12-02 03:40:00,44.9,42.2,29.97,NW,304,0.0,0.0,90,0.00,,---,0.00,VWS V14.01,2013-12-02 08:40:00,
2013-12-02 03:42:00,45.0,42.0,29.95,SW,226,0.0,1.0,89,0.00,,---,0.00,VWS V14.01,2013-12-02 08:42:00,
2013-12-02 03:47:00,45.1,41.8,29.95,WSW,245,0.0,2.0,88,0.00,,---,0.00,VWS V14.01,2013-12-02 08:47:00,
2013-12-02 03:52:00,45.1,41.5,29.95,WSW,245,0.0,0.0,87,0.00,,---,0.00,VWS V14.01,2013-12-02 08:52:00,
2013-12-02 03:55:00,44.7,42.5,29.96,NW,304,0.0,0.0,92,0.00,,---,0.00,VWS V14.01,2013-12-02 08:55:00,
2013-12-02 03:57:00,45.1,42.1,29.95,WSW,245,0.0,1.0,89,0.00,,---,0.00,VWS V14.01,2013-12-02 08:57:00,
2013-12-02 04:02:00,45.1,41.5,29.95,SW,234,0.0,2.0,87,0.00,,---,0.00,VWS V14.01,2013-12-02 09:02:00,
2013-12-02 04:05:00,44.6,42.7,29.96,SSW,195,0.0,0.0,93,0.00,,---,0.00,VWS V14.01,2013-12-02 09:05:00,
2013-12-02 04:07:00,45.1,41.8,29.95,South,171,0.0,1.0,88,0.00,,---,0.00,VWS V14.01,2013-12-02 09:07:00,
2013-12-02 04:10:00,44.4,42.5,29.96,SSE,161,0.0,0.0,93,0.00,,---,0.00,VWS V14.01,2013-12-02 09:10:00,
2013-12-02 04:12:00,45.0,42.0,29.94,SSE,159,0.0,0.0,89,0.01,,---,0.01,VWS V14.01,2013-12-02 09:12:00,
2013-12-02 04:15:00,44.4,42.2,29.96,SSW,211,0.0,0.0,92,0.00,,---,0.00,VWS V14.01,2013-12-02 09:15:00,
2013-12-02 04:17:00,44.6,42.1,29.94,SSE,159,0.0,0.0,91,0.02,,---,0.02,VWS V14.01,2013-12-02 09:17:00,
2013-12-02 04:20:00,44.6,42.1,29.96,SW,230,0.0,0.0,91,0.00,,---,0.00,VWS V14.01,2013-12-02 09:20:00,
2013-12-02 04:22:00,44.4,41.9,29.95,WSW,243,0.0,1.0,91,0.03,,---,0.03,VWS V14.01,2013-12-02 09:22:00,
2013-12-02 04:27:00,44.3,42.1,29.94,SW,231,0.0,0.0,92,0.03,,---,0.03,VWS V14.01,2013-12-02 09:27:00,
2013-12-02 04:32:00,44.2,42.3,29.94,SSE,149,0.0,1.0,93,0.03,,---,0.03,VWS V14.01,2013-12-02 09:32:00,
2013-12-02 04:37:00,44.0,42.1,29.94,SW,219,0.0,1.0,93,0.03,,---,0.03,VWS V14.01,2013-12-02 09:37:00,
2013-12-02 04:42:00,44.0,42.4,29.94,SSW,195,0.0,1.0,94,0.03,,---,0.03,VWS V14.01,2013-12-02 09:42:00,
2013-12-02 04:47:00,43.9,42.3,29.93,SW,219,0.0,2.0,94,0.03,,---,0.03,VWS V14.01,2013-12-02 09:47:00,
2013-12-02 04:52:00,43.9,42.3,29.94,WSW,248,0.0,3.0,94,0.03,,---,0.03,VWS V14.01,2013-12-02 09:52:00,
2013-12-02 04:55:00,45.1,41.8,29.95,WSW,245,0.0,1.0,88,0.00,,---,0.00,VWS V14.01,2013-12-02 09:55:00,
2013-12-02 04:57:00,43.9,42.6,29.94,WSW,255,0.0,2.0,95,0.03,,---,0.03,VWS V14.01,2013-12-02 09:57:00,
2013-12-02 05:02:00,43.9,42.6,29.94,West,259,0.0,1.0,95,0.03,,---,0.03,VWS V14.01,2013-12-02 10:02:00,
2013-12-02 05:07:00,43.8,42.5,29.93,SSE,152,0.0,0.0,95,0.03,,---,0.03,VWS V14.01,2013-12-02 10:07:00,
2013-12-02 05:12:00,43.8,42.5,29.93,SE,146,0.0,1.0,95,0.02,,---,0.03,VWS V14.01,2013-12-02 10:12:00,
2013-12-02 05:15:00,44.8,42.0,29.94,SSE,159,0.0,0.0,90,0.01,,---,0.01,VWS V14.01,2013-12-02 10:15:00,
2013-12-02 05:17:00,43.7,42.4,29.93,SSW,212,0.0,1.0,95,0.02,,---,0.03,VWS V14.01,2013-12-02 10:17:00,
2013-12-02 05:22:00,43.7,42.6,29.93,SW,214,0.0,0.0,96,0.01,,---,0.03,VWS V14.01,2013-12-02 10:22:00,
2013-12-02 05:27:00,43.7,42.6,29.93,SW,214,0.0,0.0,96,0.00,,---,0.03,VWS V14.01,2013-12-02 10:27:00,
2013-12-02 05:30:00,44.3,42.4,29.94,SW,219,0.0,1.0,93,0.03,,---,0.03,VWS V14.01,2013-12-02 10:30:00,
2013-12-02 05:32:00,43.7,42.6,29.93,SW,214,0.0,0.0,96,0.00,,---,0.03,VWS V14.01,2013-12-02 10:32:00,
2013-12-02 05:35:00,44.1,42.2,29.94,SW,233,0.0,1.0,93,0.03,,---,0.03,VWS V14.01,2013-12-02 10:35:00,
2013-12-02 05:37:00,43.7,42.6,29.93,SW,214,0.0,0.0,96,0.00,,---,0.03,VWS V14.01,2013-12-02 10:37:00,
2013-12-02 05:42:00,43.7,42.6,29.93,SW,214,0.0,0.0,96,0.00,,---,0.03,VWS V14.01,2013-12-02 10:42:00,
2013-12-02 05:45:00,43.9,42.3,29.94,SSE,168,0.0,1.0,94,0.03,,---,0.03,VWS V14.01,2013-12-02 10:45:00,
2013-12-02 05:47:00,43.7,42.6,29.93,WSW,254,0.0,0.0,96,0.00,,---,0.03,VWS V14.01,2013-12-02 10:47:00,
2013-12-02 05:52:00,43.7,42.9,29.93,WSW,254,0.0,0.0,97,0.00,,---,0.03,VWS V14.01,2013-12-02 10:52:00,
2013-12-02 05:55:00,43.9,42.3,29.94,NW,304,1.0,3.0,94,0.03,,---,0.03,VWS V14.01,2013-12-02 10:55:00,
2013-12-02 05:57:00,43.7,42.9,29.93,WSW,254,0.0,0.0,97,0.00,,---,0.03,VWS V14.01,2013-12-02 10:57:00,
2013-12-02 06:02:00,43.8,43.0,29.93,South,191,0.0,0.0,97,0.00,,---,0.03,VWS V14.01,2013-12-02 11:02:00,
2013-12-02 06:07:00,43.8,43.0,29.93,SW,229,0.0,0.0,97,0.00,,---,0.03,VWS V14.01,2013-12-02 11:07:00,
2013-12-02 06:10:00,43.8,42.5,29.93,SSE,151,0.0,1.0,95,0.03,,---,0.03,VWS V14.01,2013-12-02 11:10:00,
2013-12-02 06:12:00,43.8,43.0,29.93,SW,229,0.0,0.0,97,0.00,,---,0.03,VWS V14.01,2013-12-02 11:12:00,
2013-12-02 06:15:00,43.7,42.4,29.93,SE,146,0.0,1.0,95,0.02,,---,0.03,VWS V14.01,2013-12-02 11:15:00,
2013-12-02 06:17:00,43.8,43.0,29.93,SW,229,0.0,0.0,97,0.00,,---,0.03,VWS V14.01,2013-12-02 11:17:00,
2013-12-02 06:22:00,43.8,43.0,29.93,SW,229,0.0,0.0,97,0.00,,---,0.03,VWS V14.01,2013-12-02 11:22:00,
2013-12-02 06:27:00,43.8,43.0,29.93,SSW,195,0.0,0.0,97,0.00,,---,0.03,VWS V14.01,2013-12-02 11:27:00,
2013-12-02 06:32:00,43.8,43.0,29.93,WSW,239,0.0,1.0,97,0.00,,---,0.03,VWS V14.01,2013-12-02 11:32:00,
2013-12-02 06:37:00,43.9,43.1,29.92,SW,233,0.0,0.0,97,0.00,,---,0.03,VWS V14.01,2013-12-02 11:37:00,
2013-12-02 06:42:00,43.8,43.0,29.92,South,176,0.0,0.0,97,0.00,,---,0.03,VWS V14.01,2013-12-02 11:42:00,
2013-12-02 06:47:00,43.7,42.9,29.92,WSW,252,0.0,1.0,97,0.00,,---,0.03,VWS V14.01,2013-12-02 11:47:00,
2013-12-02 06:52:00,43.7,42.9,29.92,SW,214,0.0,1.0,97,0.00,,---,0.03,VWS V14.01,2013-12-02 11:52:00,
2013-12-02 06:55:00,43.7,42.9,29.93,WSW,254,0.0,0.0,97,0.00,,---,0.03,VWS V14.01,2013-12-02 11:55:00,
2013-12-02 06:58:00,43.7,42.9,29.92,SW,219,0.0,0.0,97,0.00,,---,0.03,VWS V14.01,2013-12-02 11:58:00,
2013-12-02 07:00:00,43.8,43.0,29.93,SW,218,0.0,1.0,97,0.00,,---,0.03,VWS V14.01,2013-12-02 12:00:00,
2013-12-02 07:03:00,43.7,42.9,29.92,South,175,0.0,0.0,97,0.00,,---,0.03,VWS V14.01,2013-12-02 12:03:00,
2013-12-02 07:05:00,43.8,43.0,29.93,South,191,0.0,0.0,97,0.00,,---,0.03,VWS V14.01,2013-12-02 12:05:00,
2013-12-02 07:08:00,43.7,42.9,29.92,South,175,0.0,0.0,97,0.00,,---,0.03,VWS V14.01,2013-12-02 12:08:00,
2013-12-02 07:10:00,43.8,43.0,29.93,SW,229,0.0,0.0,97,0.00,,---,0.03,VWS V14.01,2013-12-02 12:10:00,
2013-12-02 07:13:00,43.8,43.0,29.92,SW,224,0.0,0.0,97,0.00,,---,0.03,VWS V14.01,2013-12-02 12:13:00,
2013-12-02 07:15:00,43.8,43.0,29.93,SW,229,0.0,1.0,97,0.00,,---,0.03,VWS V14.01,2013-12-02 12:15:00,
2013-12-02 07:18:00,43.8,43.0,29.92,SW,224,0.0,1.0,97,0.00,,---,0.03,VWS V14.01,2013-12-02 12:18:00,
2013-12-02 07:23:00,43.8,43.0,29.92,SW,224,0.0,0.0,97,0.00,,---,0.03,VWS V14.01,2013-12-02 12:23:00,
2013-12-02 07:25:00,43.8,43.0,29.93,SW,229,0.0,0.0,97,0.00,,---,0.03,VWS V14.01,2013-12-02 12:25:00,
2013-12-02 07:28:00,43.8,43.0,29.92,SW,224,0.0,0.0,97,0.00,,---,0.03,VWS V14.01,2013-12-02 12:28:00,
2013-12-02 07:30:00,43.8,43.0,29.93,South,191,0.0,0.0,97,0.00,,---,0.03,VWS V14.01,2013-12-02 12:30:00,
2013-12-02 07:33:00,43.9,43.1,29.92,SW,224,0.0,0.0,97,0.00,,---,0.03,VWS V14.01,2013-12-02 12:33:00,
2013-12-02 07:38:00,43.8,43.0,29.92,SW,224,0.0,0.0,97,0.00,,---,0.03,VWS V14.01,2013-12-02 12:38:00,
2013-12-02 07:40:00,43.9,43.1,29.92,South,176,0.0,0.0,97,0.00,,---,0.03,VWS V14.01,2013-12-02 12:40:00,
2013-12-02 07:43:00,43.8,43.0,29.92,SW,224,0.0,0.0,97,0.00,,---,0.03,VWS V14.01,2013-12-02 12:43:00,
2013-12-02 07:45:00,43.8,43.0,29.92,WSW,247,0.0,0.0,97,0.00,,---,0.03,VWS V14.01,2013-12-02 12:45:00,
2013-12-02 07:48:00,43.8,43.0,29.92,SW,224,0.0,0.0,97,0.00,,---,0.03,VWS V14.01,2013-12-02 12:48:00,
2013-12-02 07:53:00,43.8,43.0,29.92,SW,224,0.0,0.0,97,0.00,,---,0.03,VWS V14.01,2013-12-02 12:53:00,
2013-12-02 07:58:00,43.8,43.0,29.92,SW,224,0.0,0.0,97,0.00,,---,0.03,VWS V14.01,2013-12-02 12:58:00,
2013-12-02 08:03:00,43.9,43.1,29.92,SW,224,0.0,0.0,97,0.00,,---,0.03,VWS V14.01,2013-12-02 13:03:00,
2013-12-02 08:05:00,43.7,42.9,29.92,South,175,0.0,0.0,97,0.00,,---,0.03,VWS V14.01,2013-12-02 13:05:00,
2013-12-02 08:08:00,43.9,43.1,29.92,SW,224,0.0,0.0,97,0.00,,---,0.03,VWS V14.01,2013-12-02 13:08:00,
2013-12-02 08:10:00,43.7,42.9,29.92,SSW,194,0.0,0.0,97,0.00,,---,0.03,VWS V14.01,2013-12-02 13:10:00,
2013-12-02 08:13:00,43.9,43.1,29.92,SW,224,0.0,0.0,97,0.00,,---,0.03,VWS V14.01,2013-12-02 13:13:00,
2013-12-02 08:18:00,43.9,43.1,29.92,SW,224,0.0,0.0,97,0.01,,---,0.04,VWS V14.01,2013-12-02 13:18:00,
2013-12-02 08:23:00,43.9,43.1,29.92,SW,224,0.0,0.0,97,0.01,,---,0.04,VWS V14.01,2013-12-02 13:23:00,
2013-12-02 08:28:00,43.9,43.1,29.92,SW,214,0.0,1.0,97,0.01,,---,0.04,VWS V14.01,2013-12-02 13:28:00,
2013-12-02 08:33:00,43.9,43.1,29.92,SSW,210,0.0,0.0,97,0.01,,---,0.04,VWS V14.01,2013-12-02 13:33:00,
2013-12-02 08:38:00,43.9,43.4,29.92,SW,233,0.0,0.0,98,0.01,,---,0.04,VWS V14.01,2013-12-02 13:38:00,
2013-12-02 08:43:00,44.0,43.5,29.92,SW,236,0.0,0.0,98,0.01,,---,0.04,VWS V14.01,2013-12-02 13:43:00,
2013-12-02 08:45:00,43.8,43.0,29.92,SW,224,0.0,0.0,97,0.00,,---,0.03,VWS V14.01,2013-12-02 13:45:00,
2013-12-02 08:48:00,44.0,43.5,29.92,West,264,0.0,1.0,98,0.01,,---,0.04,VWS V14.01,2013-12-02 13:48:00,
2013-12-02 08:50:00,43.8,43.0,29.92,SW,224,0.0,0.0,97,0.00,,---,0.03,VWS V14.01,2013-12-02 13:50:00,
2013-12-02 08:53:00,44.0,43.5,29.92,WSW,248,0.0,0.0,98,0.01,,---,0.04,VWS V14.01,2013-12-02 13:53:00,
2013-12-02 08:58:00,44.1,43.6,29.92,WSW,248,0.0,0.0,98,0.01,,---,0.04,VWS V14.01,2013-12-02 13:58:00,
2013-12-02 09:03:00,44.1,43.6,29.93,WSW,248,0.0,0.0,98,0.01,,---,0.04,VWS V14.01,2013-12-02 14:03:00,
2013-12-02 09:05:00,43.9,43.1,29.92,SW,224,0.0,0.0,97,0.00,,---,0.03,VWS V14.01,2013-12-02 14:05:00,
2013-12-02 09:08:00,44.2,43.7,29.92,SW,214,0.0,1.0,98,0.01,,---,0.04,VWS V14.01,2013-12-02 14:08:00,
2013-12-02 09:13:00,44.2,43.7,29.92,WSW,252,0.0,2.0,98,0.01,,---,0.04,VWS V14.01,2013-12-02 14:13:00,
2013-12-02 09:15:00,43.9,43.1,29.92,SW,224,0.0,0.0,97,0.01,,---,0.04,VWS V14.01,2013-12-02 14:15:00,
2013-12-02 09:18:00,44.2,43.7,29.92,SW,219,0.0,1.0,98,0.00,,---,0.04,VWS V14.01,2013-12-02 14:18:00,
2013-12-02 09:23:00,44.3,43.8,29.92,SW,219,0.0,0.0,98,0.00,,---,0.04,VWS V14.01,2013-12-02 14:23:00,
2013-12-02 09:28:00,44.5,44.0,29.92,SW,219,0.0,0.0,98,0.01,,---,0.05,VWS V14.01,2013-12-02 14:28:00,
2013-12-02 09:33:00,44.5,44.0,29.92,SSW,201,0.0,1.0,98,0.01,,---,0.05,VWS V14.01,2013-12-02 14:33:00,
2013-12-02 09:38:00,44.5,44.0,29.92,SW,226,0.0,1.0,98,0.01,,---,0.05,VWS V14.01,2013-12-02 14:38:00,
2013-12-02 09:43:00,44.6,44.1,29.92,SSE,158,1.0,1.0,98,0.01,,---,0.05,VWS V14.01,2013-12-02 14:43:00,
2013-12-02 09:45:00,44.0,43.5,29.92,SW,236,0.0,0.0,98,0.01,,---,0.04,VWS V14.01,2013-12-02 14:45:00,
2013-12-02 09:48:00,44.7,44.2,29.91,SSE,166,1.0,1.0,98,0.01,,---,0.05,VWS V14.01,2013-12-02 14:48:00,
2013-12-02 09:53:00,44.7,44.2,29.92,SE,141,0.0,3.0,98,0.01,,---,0.05,VWS V14.01,2013-12-02 14:53:00,
2013-12-02 09:55:00,44.0,43.5,29.92,WSW,248,0.0,0.0,98,0.01,,---,0.04,VWS V14.01,2013-12-02 14:55:00,
2013-12-02 09:58:00,44.8,44.3,29.91,WSW,245,0.0,2.0,98,0.01,,---,0.05,VWS V14.01,2013-12-02 14:58:00,
2013-12-02 10:00:00,44.1,43.6,29.93,WSW,248,0.0,0.0,98,0.01,,---,0.04,VWS V14.01,2013-12-02 15:00:00,
2013-12-02 10:03:00,44.9,44.4,29.91,South,176,0.0,3.0,98,0.01,,---,0.05,VWS V14.01,2013-12-02 15:03:00,
2013-12-02 10:05:00,44.1,43.6,29.93,WSW,248,0.0,0.0,98,0.01,,---,0.04,VWS V14.01,2013-12-02 15:05:00,
2013-12-02 10:08:00,44.9,44.4,29.91,SSE,148,0.0,4.0,98,0.01,,---,0.05,VWS V14.01,2013-12-02 15:08:00,
2013-12-02 10:10:00,44.2,43.7,29.93,SW,214,0.0,1.0,98,0.01,,---,0.04,VWS V14.01,2013-12-02 15:10:00,
2013-12-02 10:13:00,44.8,44.3,29.91,SW,230,0.0,4.0,98,0.01,,---,0.05,VWS V14.01,2013-12-02 15:13:00,
2013-12-02 10:18:00,44.8,44.3,29.91,SSE,148,0.0,2.0,98,0.01,,---,0.05,VWS V14.01,2013-12-02 15:18:00,
2013-12-02 10:23:00,44.8,44.3,29.91,SE,137,0.0,1.0,98,0.01,,---,0.05,VWS V14.01,2013-12-02 15:23:00,
2013-12-02 10:28:00,44.8,44.0,29.91,SW,226,2.0,3.0,97,0.01,,---,0.05,VWS V14.01,2013-12-02 15:28:00,
2013-12-02 10:30:00,44.5,44.0,29.92,SW,219,0.0,0.0,98,0.01,,---,0.05,VWS V14.01,2013-12-02 15:30:00,
2013-12-02 10:33:00,44.8,44.3,29.91,SW,225,0.0,3.0,98,0.00,,---,0.05,VWS V14.01,2013-12-02 15:33:00,
2013-12-02 10:38:00,44.9,44.4,29.90,SW,230,0.0,2.0,98,0.00,,---,0.05,VWS V14.01,2013-12-02 15:38:00,
2013-12-02 10:40:00,44.6,44.1,29.92,SSW,212,0.0,1.0,98,0.01,,---,0.05,VWS V14.01,2013-12-02 15:40:00,
2013-12-02 10:43:00,44.9,44.4,29.91,SE,145,0.0,3.0,98,0.00,,---,0.05,VWS V14.01,2013-12-02 15:43:00,
2013-12-02 10:45:00,44.6,44.1,29.92,SSW,204,0.0,1.0,98,0.01,,---,0.05,VWS V14.01,2013-12-02 15:45:00,
2013-12-02 10:48:00,45.0,44.5,29.90,SSE,161,0.0,2.0,98,0.00,,---,0.05,VWS V14.01,2013-12-02 15:48:00,
2013-12-02 10:50:00,44.7,44.2,29.91,SSE,152,1.0,1.0,98,0.01,,---,0.05,VWS V14.01,2013-12-02 15:50:00,
2013-12-02 10:53:00,45.1,44.6,29.90,South,187,1.0,1.0,98,0.00,,---,0.05,VWS V14.01,2013-12-02 15:53:00,
2013-12-02 10:55:00,44.7,44.2,29.91,SW,214,0.0,3.0,98,0.01,,---,0.05,VWS V14.01,2013-12-02 15:55:00,
2013-12-02 10:58:00,45.1,44.6,29.90,WSW,238,0.0,1.0,98,0.00,,---,0.05,VWS V14.01,2013-12-02 15:58:00,
2013-12-02 11:00:00,44.8,44.3,29.91,SW,216,0.0,2.0,98,0.01,,---,0.05,VWS V14.01,2013-12-02 16:00:00,
2013-12-02 11:03:00,45.1,44.6,29.90,SSE,167,0.0,1.0,98,0.00,,---,0.05,VWS V14.01,2013-12-02 16:03:00,
2013-12-02 11:05:00,44.8,44.3,29.91,SW,233,0.0,3.0,98,0.01,,---,0.05,VWS V14.01,2013-12-02 16:05:00,
2013-12-02 11:08:00,45.2,44.7,29.90,SW,229,1.0,2.0,98,0.00,,---,0.05,VWS V14.01,2013-12-02 16:08:00,
2013-12-02 11:10:00,44.8,44.3,29.91,SE,139,1.0,4.0,98,0.01,,---,0.05,VWS V14.01,2013-12-02 16:10:00,
2013-12-02 11:13:00,45.3,44.8,29.90,SE,143,0.0,1.0,98,0.00,,---,0.05,VWS V14.01,2013-12-02 16:13:00,
2013-12-02 11:15:00,44.8,44.0,29.91,SSE,147,0.0,4.0,97,0.01,,---,0.05,VWS V14.01,2013-12-02 16:15:00,
2013-12-02 11:18:00,45.3,44.8,29.90,West,262,1.0,1.0,98,0.00,,---,0.05,VWS V14.01,2013-12-02 16:18:00,
2013-12-02 11:20:00,44.8,44.3,29.91,ESE,122,1.0,2.0,98,0.01,,---,0.05,VWS V14.01,2013-12-02 16:20:00,
2013-12-02 11:23:00,45.3,44.8,29.90,SSE,158,2.0,2.0,98,0.00,,---,0.05,VWS V14.01,2013-12-02 16:23:00,
2013-12-02 11:25:00,44.8,44.3,29.91,South,177,0.0,1.0,98,0.01,,---,0.05,VWS V14.01,2013-12-02 16:25:00,
2013-12-02 11:28:00,45.3,44.8,29.90,SSE,155,0.0,3.0,98,0.00,,---,0.05,VWS V14.01,2013-12-02 16:28:00,
2013-12-02 11:30:00,44.8,44.3,29.91,SSW,210,2.0,3.0,98,0.01,,---,0.05,VWS V14.01,2013-12-02 16:30:00,
2013-12-02 11:33:00,45.3,44.8,29.90,SW,233,3.0,3.0,98,0.00,,---,0.05,VWS V14.01,2013-12-02 16:33:00,
2013-12-02 11:35:00,44.8,44.3,29.90,SW,231,0.0,3.0,98,0.00,,---,0.05,VWS V14.01,2013-12-02 16:35:00,
2013-12-02 11:38:00,45.4,44.9,29.90,WSW,238,1.0,3.0,98,0.00,,---,0.05,VWS V14.01,2013-12-02 16:38:00,
2013-12-02 11:40:00,44.9,44.4,29.90,SSE,158,2.0,3.0,98,0.00,,---,0.05,VWS V14.01,2013-12-02 16:40:00,
2013-12-02 11:43:00,45.4,44.9,29.89,SE,130,0.0,2.0,98,0.00,,---,0.05,VWS V14.01,2013-12-02 16:43:00,
2013-12-02 11:45:00,44.9,44.4,29.91,SE,146,0.0,3.0,98,0.00,,---,0.05,VWS V14.01,2013-12-02 16:45:00,
2013-12-02 11:48:00,45.4,44.9,29.89,West,260,1.0,3.0,98,0.00,,---,0.05,VWS V14.01,2013-12-02 16:48:00,
2013-12-02 11:50:00,45.0,44.5,29.90,SSE,161,0.0,2.0,98,0.00,,---,0.05,VWS V14.01,2013-12-02 16:50:00,
2013-12-02 11:53:00,45.5,45.0,29.88,SW,230,0.0,3.0,98,0.00,,---,0.05,VWS V14.01,2013-12-02 16:53:00,
2013-12-02 11:55:00,45.1,44.6,29.90,SE,143,1.0,1.0,98,0.00,,---,0.05,VWS V14.01,2013-12-02 16:55:00,
2013-12-02 11:58:00,45.6,45.1,29.88,SE,139,0.0,1.0,98,0.00,,---,0.05,VWS V14.01,2013-12-02 16:58:00,
2013-12-02 12:00:00,45.1,44.6,29.90,SSW,200,1.0,1.0,98,0.00,,---,0.05,VWS V14.01,2013-12-02 17:00:00,
2013-12-02 12:03:00,45.6,45.1,29.88,WSW,239,1.0,1.0,98,0.00,,---,0.05,VWS V14.01,2013-12-02 17:03:00,
2013-12-02 12:05:00,45.1,44.6,29.90,SSW,195,0.0,1.0,98,0.00,,---,0.05,VWS V14.01,2013-12-02 17:05:00,
2013-12-02 12:08:00,45.6,45.1,29.88,West,262,0.0,2.0,98,0.00,,---,0.05,VWS V14.01,2013-12-02 17:08:00,
2013-12-02 12:10:00,45.2,44.7,29.90,SSW,192,1.0,2.0,98,0.00,,---,0.05,VWS V14.01,2013-12-02 17:10:00,
2013-12-02 12:13:00,45.7,45.2,29.87,SSW,208,2.0,2.0,98,0.00,,---,0.05,VWS V14.01,2013-12-02 17:13:00,
2013-12-02 12:15:00,45.3,44.8,29.90,West,259,1.0,3.0,98,0.00,,---,0.05,VWS V14.01,2013-12-02 17:15:00,
2013-12-02 12:18:00,45.7,45.2,29.87,WSW,243,0.0,2.0,98,0.00,,---,0.05,VWS V14.01,2013-12-02 17:18:00,
2013-12-02 12:20:00,45.3,44.8,29.90,West,263,0.0,2.0,98,0.00,,---,0.05,VWS V14.01,2013-12-02 17:20:00,
2013-12-02 12:23:00,45.7,44.9,29.87,WSW,255,2.0,3.0,97,0.00,,---,0.05,VWS V14.01,2013-12-02 17:23:00,
2013-12-02 12:25:00,45.3,44.8,29.90,SW,226,0.0,2.0,98,0.00,,---,0.05,VWS V14.01,2013-12-02 17:25:00,
2013-12-02 12:28:00,45.7,45.2,29.87,SSE,155,2.0,2.0,98,0.00,,---,0.05,VWS V14.01,2013-12-02 17:28:00,
2013-12-02 12:30:00,45.3,44.8,29.90,SSE,166,0.0,3.0,98,0.00,,---,0.05,VWS V14.01,2013-12-02 17:30:00,
2013-12-02 12:33:00,45.7,45.2,29.86,WSW,254,1.0,3.0,98,0.00,,---,0.05,VWS V14.01,2013-12-02 17:33:00,
2013-12-02 12:35:00,45.3,44.8,29.90,SW,218,1.0,3.0,98,0.00,,---,0.05,VWS V14.01,2013-12-02 17:35:00,
2013-12-02 12:38:00,45.8,45.3,29.86,WSW,243,0.0,1.0,98,0.00,,---,0.05,VWS V14.01,2013-12-02 17:38:00,
2013-12-02 12:40:00,45.4,44.9,29.90,SSE,153,0.0,3.0,98,0.00,,---,0.05,VWS V14.01,2013-12-02 17:40:00,
2013-12-02 12:43:00,45.9,45.4,29.86,SE,130,0.0,2.0,98,0.00,,---,0.05,VWS V14.01,2013-12-02 17:43:00,
2013-12-02 12:45:00,45.4,44.9,29.89,SW,226,0.0,2.0,98,0.00,,---,0.05,VWS V14.01,2013-12-02 17:45:00,
2013-12-02 12:48:00,45.9,45.4,29.86,SW,230,0.0,2.0,98,0.00,,---,0.05,VWS V14.01,2013-12-02 17:48:00,
2013-12-02 12:50:00,45.4,44.9,29.89,SSW,203,1.0,3.0,98,0.00,,---,0.05,VWS V14.01,2013-12-02 17:50:00,
2013-12-02 12:53:00,46.0,45.5,29.86,SSW,208,2.0,4.0,98,0.00,,---,0.05,VWS V14.01,2013-12-02 17:53:00,
2013-12-02 12:55:00,45.5,45.0,29.88,SSW,203,1.0,3.0,98,0.00,,---,0.05,VWS V14.01,2013-12-02 17:55:00,
2013-12-02 12:58:00,46.0,45.5,29.86,SSW,209,2.0,3.0,98,0.00,,---,0.05,VWS V14.01,2013-12-02 17:58:00,
2013-12-02 13:00:00,45.6,45.1,29.88,SE,139,0.0,1.0,98,0.00,,---,0.05,VWS V14.01,2013-12-02 18:00:00,
2013-12-02 13:04:00,46.0,45.5,29.85,SW,222,1.0,1.0,98,0.00,,---,0.05,VWS V14.01,2013-12-02 18:04:00,
2013-12-02 13:05:00,45.6,45.1,29.88,SW,232,0.0,1.0,98,0.00,,---,0.05,VWS V14.01,2013-12-02 18:05:00,
2013-12-02 13:09:00,46.0,45.5,29.85,SSE,159,0.0,2.0,98,0.00,,---,0.05,VWS V14.01,2013-12-02 18:09:00,
2013-12-02 13:10:00,45.6,45.1,29.88,SW,232,0.0,2.0,98,0.00,,---,0.05,VWS V14.01,2013-12-02 18:10:00,
2013-12-02 13:14:00,46.2,45.7,29.84,SSE,160,0.0,1.0,98,0.00,,---,0.05,VWS V14.01,2013-12-02 18:14:00,
2013-12-02 13:19:00,46.2,45.7,29.84,SSW,213,2.0,2.0,98,0.00,,---,0.05,VWS V14.01,2013-12-02 18:19:00,
2013-12-02 13:20:00,45.7,45.2,29.87,WSW,243,1.0,2.0,98,0.00,,---,0.05,VWS V14.01,2013-12-02 18:20:00,
2013-12-02 13:24:00,46.2,45.7,29.84,SW,219,1.0,2.0,98,0.00,,---,0.05,VWS V14.01,2013-12-02 18:24:00,
2013-12-02 13:25:00,45.7,44.9,29.87,WSW,237,1.0,3.0,97,0.00,,---,0.05,VWS V14.01,2013-12-02 18:25:00,
2013-12-02 13:29:00,46.2,45.7,29.84,SE,134,0.0,3.0,98,0.00,,---,0.05,VWS V14.01,2013-12-02 18:29:00,
2013-12-02 13:30:00,45.7,45.2,29.87,SSE,150,2.0,2.0,98,0.00,,---,0.05,VWS V14.01,2013-12-02 18:30:00,
2013-12-02 13:34:00,46.3,45.8,29.83,East,86,0.0,1.0,98,0.00,,---,0.05,VWS V14.01,2013-12-02 18:34:00,
2013-12-02 13:35:00,45.7,45.2,29.86,South,185,1.0,3.0,98,0.00,,---,0.05,VWS V14.01,2013-12-02 18:35:00,
2013-12-02 13:39:00,46.4,45.9,29.83,SSE,153,0.0,2.0,98,0.00,,---,0.05,VWS V14.01,2013-12-02 18:39:00,
2013-12-02 13:40:00,45.8,45.3,29.86,South,186,0.0,1.0,98,0.00,,---,0.05,VWS V14.01,2013-12-02 18:40:00,
2013-12-02 13:44:00,46.4,45.9,29.83,SE,139,1.0,1.0,98,0.00,,---,0.05,VWS V14.01,2013-12-02 18:44:00,
2013-12-02 13:45:00,45.9,45.4,29.86,SSE,160,1.0,2.0,98,0.00,,---,0.05,VWS V14.01,2013-12-02 18:45:00,
2013-12-02 13:49:00,46.5,46.0,29.83,South,174,0.0,2.0,98,0.00,,---,0.05,VWS V14.01,2013-12-02 18:49:00,
2013-12-02 13:50:00,46.0,45.5,29.86,SSW,208,1.0,2.0,98,0.00,,---,0.05,VWS V14.01,2013-12-02 18:50:00,
2013-12-02 13:54:00,46.5,46.0,29.83,SW,219,0.0,3.0,98,0.00,,---,0.05,VWS V14.01,2013-12-02 18:54:00,
2013-12-02 13:55:00,46.0,45.5,29.86,SSW,195,0.0,4.0,98,0.00,,---,0.05,VWS V14.01,2013-12-02 18:55:00,
2013-12-02 13:59:00,46.7,46.2,29.83,SW,234,4.0,4.0,98,0.00,,---,0.05,VWS V14.01,2013-12-02 18:59:00,
2013-12-02 14:00:00,46.0,45.5,29.86,SSW,193,0.0,3.0,98,0.00,,---,0.05,VWS V14.01,2013-12-02 19:00:00,
2013-12-02 14:04:00,46.7,46.2,29.82,WSW,244,2.0,3.0,98,0.00,,---,0.05,VWS V14.01,2013-12-02 19:04:00,
2013-12-02 14:05:00,46.0,45.5,29.85,South,191,1.0,3.0,98,0.00,,---,0.05,VWS V14.01,2013-12-02 19:05:00,
2013-12-02 14:09:00,46.6,46.1,29.82,SSW,207,1.0,3.0,98,0.00,,---,0.05,VWS V14.01,2013-12-02 19:09:00,
2013-12-02 14:10:00,46.1,45.6,29.85,SSE,159,0.0,2.0,98,0.00,,---,0.05,VWS V14.01,2013-12-02 19:10:00,
2013-12-02 14:14:00,46.7,46.2,29.82,SSW,193,0.0,2.0,98,0.00,,---,0.05,VWS V14.01,2013-12-02 19:14:00,
2013-12-02 14:15:00,46.2,45.7,29.84,SSE,150,0.0,1.0,98,0.00,,---,0.05,VWS V14.01,2013-12-02 19:15:00,
2013-12-02 14:19:00,46.8,46.3,29.82,SSW,203,0.0,1.0,98,0.00,,---,0.05,VWS V14.01,2013-12-02 19:19:00,
2013-12-02 14:20:00,46.2,45.7,29.84,SW,228,0.0,2.0,98,0.00,,---,0.05,VWS V14.01,2013-12-02 19:20:00,
2013-12-02 14:24:00,46.7,46.2,29.82,WSW,238,0.0,4.0,98,0.00,,---,0.05,VWS V14.01,2013-12-02 19:24:00,
2013-12-02 14:25:00,46.2,45.7,29.84,SSE,148,0.0,2.0,98,0.00,,---,0.05,VWS V14.01,2013-12-02 19:25:00,
2013-12-02 14:29:00,46.6,46.1,29.82,South,177,0.0,1.0,98,0.00,,---,0.05,VWS V14.01,2013-12-02 19:29:00,
2013-12-02 14:30:00,46.2,45.7,29.84,SE,136,0.0,3.0,98,0.00,,---,0.05,VWS V14.01,2013-12-02 19:30:00,
2013-12-02 14:34:00,46.7,46.2,29.81,South,187,0.0,0.0,98,0.00,,---,0.05,VWS V14.01,2013-12-02 19:34:00,
2013-12-02 14:35:00,46.3,45.8,29.83,ENE,63,2.0,2.0,98,0.00,,---,0.05,VWS V14.01,2013-12-02 19:35:00,
2013-12-02 14:39:00,46.7,46.2,29.81,SSW,209,0.0,2.0,98,0.00,,---,0.05,VWS V14.01,2013-12-02 19:39:00,
2013-12-02 14:40:00,46.4,45.9,29.83,SSE,153,0.0,2.0,98,0.00,,---,0.05,VWS V14.01,2013-12-02 19:40:00,
2013-12-02 14:44:00,46.7,46.2,29.81,SSW,207,0.0,1.0,98,0.00,,---,0.05,VWS V14.01,2013-12-02 19:44:00,
2013-12-02 14:45:00,46.5,46.0,29.83,SE,139,1.0,2.0,98,0.00,,---,0.05,VWS V14.01,2013-12-02 19:45:00,
2013-12-02 14:49:00,46.7,46.2,29.81,South,170,0.0,1.0,98,0.00,,---,0.05,VWS V14.01,2013-12-02 19:49:00,
2013-12-02 14:50:00,46.5,46.0,29.83,SSW,194,3.0,3.0,98,0.00,,---,0.05,VWS V14.01,2013-12-02 19:50:00,
2013-12-02 14:54:00,46.8,46.3,29.81,SE,136,0.0,2.0,98,0.00,,---,0.05,VWS V14.01,2013-12-02 19:54:00,
2013-12-02 14:55:00,46.5,46.0,29.83,SSE,165,1.0,3.0,98,0.00,,---,0.05,VWS V14.01,2013-12-02 19:55:00,
2013-12-02 14:59:00,46.8,46.3,29.82,WSW,239,0.0,2.0,98,0.00,,---,0.05,VWS V14.01,2013-12-02 19:59:00,
2013-12-02 15:00:00,46.7,46.2,29.83,WSW,255,2.0,4.0,98,0.00,,---,0.05,VWS V14.01,2013-12-02 20:00:00,
2013-12-02 15:04:00,46.9,46.4,29.82,SSW,210,0.0,1.0,98,0.00,,---,0.05,VWS V14.01,2013-12-02 20:04:00,
2013-12-02 15:05:00,46.7,46.2,29.82,WSW,248,1.0,3.0,98,0.00,,---,0.05,VWS V14.01,2013-12-02 20:05:00,
2013-12-02 15:09:00,46.9,46.4,29.82,WSW,238,0.0,1.0,98,0.00,,---,0.05,VWS V14.01,2013-12-02 20:09:00,
2013-12-02 15:10:00,46.6,46.1,29.82,SW,235,2.0,3.0,98,0.00,,---,0.05,VWS V14.01,2013-12-02 20:10:00,
2013-12-02 15:14:00,46.9,46.4,29.81,WSW,250,0.0,1.0,98,0.00,,---,0.05,VWS V14.01,2013-12-02 20:14:00,
2013-12-02 15:15:00,46.7,46.2,29.82,SSW,193,0.0,2.0,98,0.00,,---,0.05,VWS V14.01,2013-12-02 20:15:00,
2013-12-02 15:19:00,46.9,46.4,29.81,WSW,250,0.0,1.0,98,0.00,,---,0.05,VWS V14.01,2013-12-02 20:19:00,
2013-12-02 15:20:00,46.8,46.3,29.82,SSW,201,0.0,1.0,98,0.00,,---,0.05,VWS V14.01,2013-12-02 20:20:00,
2013-12-02 15:24:00,46.9,46.4,29.81,SSE,163,0.0,1.0,98,0.00,,---,0.05,VWS V14.01,2013-12-02 20:24:00,
2013-12-02 15:25:00,46.6,46.1,29.82,WSW,238,0.0,4.0,98,0.00,,---,0.05,VWS V14.01,2013-12-02 20:25:00,
2013-12-02 15:29:00,46.9,46.4,29.81,SW,214,1.0,1.0,98,0.00,,---,0.05,VWS V14.01,2013-12-02 20:29:00,
2013-12-02 15:30:00,46.6,46.1,29.82,South,186,0.0,1.0,98,0.00,,---,0.05,VWS V14.01,2013-12-02 20:30:00,
2013-12-02 15:34:00,46.9,46.4,29.81,SSW,207,0.0,2.0,98,0.00,,---,0.05,VWS V14.01,2013-12-02 20:34:00,
2013-12-02 15:35:00,46.7,46.2,29.81,South,187,0.0,0.0,98,0.00,,---,0.05,VWS V14.01,2013-12-02 20:35:00,
2013-12-02 15:39:00,46.9,46.4,29.81,SW,235,0.0,2.0,98,0.00,,---,0.05,VWS V14.01,2013-12-02 20:39:00,
2013-12-02 15:40:00,46.7,46.2,29.81,SSW,209,0.0,2.0,98,0.00,,---,0.05,VWS V14.01,2013-12-02 20:40:00,
2013-12-02 15:44:00,47.0,46.5,29.81,SSW,210,0.0,2.0,98,0.00,,---,0.05,VWS V14.01,2013-12-02 20:44:00,
2013-12-02 15:45:00,46.7,46.2,29.81,SSW,207,0.0,1.0,98,0.00,,---,0.05,VWS V14.01,2013-12-02 20:45:00,
2013-12-02 15:49:00,47.0,46.5,29.81,SE,135,0.0,2.0,98,0.00,,---,0.05,VWS V14.01,2013-12-02 20:49:00,
2013-12-02 15:50:00,46.7,46.2,29.81,SSW,195,0.0,1.0,98,0.00,,---,0.05,VWS V14.01,2013-12-02 20:50:00,
2013-12-02 15:54:00,47.0,46.5,29.81,SW,214,0.0,1.0,98,0.00,,---,0.05,VWS V14.01,2013-12-02 20:54:00,
2013-12-02 15:55:00,46.8,46.3,29.81,SE,136,0.0,2.0,98,0.00,,---,0.05,VWS V14.01,2013-12-02 20:55:00,
2013-12-02 15:59:00,47.1,46.6,29.81,West,260,0.0,1.0,98,0.00,,---,0.05,VWS V14.01,2013-12-02 20:59:00,
2013-12-02 16:00:00,46.8,46.3,29.82,WSW,239,0.0,2.0,98,0.00,,---,0.05,VWS V14.01,2013-12-02 21:00:00,
2013-12-02 16:04:00,47.1,46.6,29.81,SSW,212,0.0,1.0,98,0.00,,---,0.05,VWS V14.01,2013-12-02 21:04:00,
2013-12-02 16:05:00,46.9,46.4,29.82,SW,214,1.0,1.0,98,0.00,,---,0.05,VWS V14.01,2013-12-02 21:05:00,
2013-12-02 16:09:00,47.1,46.6,29.81,SW,233,0.0,1.0,98,0.00,,---,0.05,VWS V14.01,2013-12-02 21:09:00,
2013-12-02 16:10:00,46.9,46.4,29.82,WSW,238,0.0,1.0,98,0.00,,---,0.05,VWS V14.01,2013-12-02 21:10:00,
2013-12-02 16:14:00,47.1,46.6,29.81,SSW,198,0.0,1.0,98,0.00,,---,0.05,VWS V14.01,2013-12-02 21:14:00,
2013-12-02 16:19:00,47.1,46.6,29.80,SW,214,0.0,0.0,98,0.00,,---,0.05,VWS V14.01,2013-12-02 21:19:00,
2013-12-02 16:20:00,46.8,46.3,29.81,WSW,250,0.0,1.0,98,0.00,,---,0.05,VWS V14.01,2013-12-02 21:20:00,
2013-12-02 16:24:00,47.2,46.7,29.80,SW,214,0.0,0.0,98,0.00,,---,0.05,VWS V14.01,2013-12-02 21:24:00,
2013-12-02 16:25:00,46.9,46.4,29.81,SSE,163,0.0,1.0,98,0.00,,---,0.05,VWS V14.01,2013-12-02 21:25:00,
2013-12-02 16:29:00,47.3,46.8,29.80,SW,214,0.0,0.0,98,0.00,,---,0.05,VWS V14.01,2013-12-02 21:29:00,
2013-12-02 16:30:00,46.9,46.4,29.81,SSW,205,0.0,1.0,98,0.00,,---,0.05,VWS V14.01,2013-12-02 21:30:00,
2013-12-02 16:34:00,47.2,46.7,29.81,SW,214,0.0,0.0,98,0.00,,---,0.05,VWS V14.01,2013-12-02 21:34:00,
2013-12-02 16:35:00,46.9,46.4,29.81,SSW,207,0.0,2.0,98,0.00,,---,0.05,VWS V14.01,2013-12-02 21:35:00,
2013-12-02 16:39:00,47.2,46.7,29.81,SW,214,0.0,0.0,98,0.00,,---,0.05,VWS V14.01,2013-12-02 21:39:00,
2013-12-02 16:40:00,46.9,46.4,29.81,SW,235,0.0,2.0,98,0.00,,---,0.05,VWS V14.01,2013-12-02 21:40:00,
2013-12-02 16:44:00,47.3,46.8,29.81,SW,214,0.0,0.0,98,0.00,,---,0.05,VWS V14.01,2013-12-02 21:44:00,
2013-12-02 16:45:00,47.0,46.5,29.81,SSW,210,0.0,2.0,98,0.00,,---,0.05,VWS V14.01,2013-12-02 21:45:00,
2013-12-02 16:49:00,47.2,46.7,29.81,SW,214,0.0,0.0,98,0.00,,---,0.05,VWS V14.01,2013-12-02 21:49:00,
2013-12-02 16:50:00,47.0,46.5,29.81,SSW,206,0.0,2.0,98,0.00,,---,0.05,VWS V14.01,2013-12-02 21:50:00,
2013-12-02 16:54:00,47.2,46.7,29.81,SW,214,0.0,0.0,98,0.00,,---,0.05,VWS V14.01,2013-12-02 21:54:00,
2013-12-02 16:55:00,47.0,46.5,29.81,SW,218,1.0,1.0,98,0.00,,---,0.05,VWS V14.01,2013-12-02 21:55:00,
2013-12-02 16:59:00,47.2,46.7,29.81,SW,214,0.0,0.0,98,0.01,,---,0.06,VWS V14.01,2013-12-02 21:59:00,
2013-12-02 17:00:00,47.1,46.6,29.81,West,260,0.0,1.0,98,0.00,,---,0.05,VWS V14.01,2013-12-02 22:00:00,
2013-12-02 17:04:00,47.2,46.7,29.81,SW,214,0.0,0.0,98,0.01,,---,0.06,VWS V14.01,2013-12-02 22:04:00,
2013-12-02 17:05:00,47.1,46.6,29.81,SSW,212,0.0,1.0,98,0.00,,---,0.05,VWS V14.01,2013-12-02 22:05:00,
2013-12-02 17:09:00,47.2,46.7,29.81,SW,214,0.0,0.0,98,0.01,,---,0.06,VWS V14.01,2013-12-02 22:09:00,
2013-12-02 17:10:00,47.1,46.6,29.81,SW,233,0.0,1.0,98,0.00,,---,0.05,VWS V14.01,2013-12-02 22:10:00,
2013-12-02 17:14:00,47.3,46.8,29.81,SW,214,0.0,0.0,98,0.01,,---,0.06,VWS V14.01,2013-12-02 22:14:00,
2013-12-02 17:15:00,47.1,46.6,29.81,SSW,198,0.0,1.0,98,0.00,,---,0.05,VWS V14.01,2013-12-02 22:15:00,
2013-12-02 17:19:00,47.3,46.8,29.81,SW,214,0.0,0.0,98,0.01,,---,0.06,VWS V14.01,2013-12-02 22:19:00,
2013-12-02 17:24:00,47.3,46.8,29.81,SW,214,0.0,0.0,98,0.01,,---,0.06,VWS V14.01,2013-12-02 22:24:00,
2013-12-02 17:25:00,47.2,46.7,29.80,SW,214,0.0,0.0,98,0.00,,---,0.05,VWS V14.01,2013-12-02 22:25:00,
2013-12-02 17:29:00,47.3,46.8,29.81,SW,214,0.0,0.0,98,0.01,,---,0.06,VWS V14.01,2013-12-02 22:29:00,
2013-12-02 17:30:00,47.3,46.8,29.81,SW,214,0.0,0.0,98,0.00,,---,0.05,VWS V14.01,2013-12-02 22:30:00,
2013-12-02 17:34:00,47.3,46.8,29.81,SW,214,0.0,0.0,98,0.01,,---,0.06,VWS V14.01,2013-12-02 22:34:00,
2013-12-02 17:35:00,47.2,46.7,29.81,SW,214,0.0,0.0,98,0.00,,---,0.05,VWS V14.01,2013-12-02 22:35:00,
2013-12-02 17:39:00,47.2,46.7,29.81,SW,214,0.0,0.0,98,0.01,,---,0.06,VWS V14.01,2013-12-02 22:39:00,
2013-12-02 17:40:00,47.2,46.7,29.81,SW,214,0.0,0.0,98,0.00,,---,0.05,VWS V14.01,2013-12-02 22:40:00,
2013-12-02 17:44:00,47.3,46.8,29.82,SW,214,0.0,0.0,98,0.01,,---,0.06,VWS V14.01,2013-12-02 22:44:00,
2013-12-02 17:45:00,47.3,46.8,29.81,SW,214,0.0,0.0,98,0.00,,---,0.05,VWS V14.01,2013-12-02 22:45:00,
2013-12-02 17:49:00,47.2,46.7,29.82,SW,214,0.0,0.0,98,0.01,,---,0.06,VWS V14.01,2013-12-02 22:49:00,
2013-12-02 17:50:00,47.2,46.7,29.81,SW,214,0.0,1.0,98,0.00,,---,0.05,VWS V14.01,2013-12-02 22:50:00,
2013-12-02 17:54:00,47.2,46.7,29.82,SW,214,0.0,0.0,98,0.01,,---,0.06,VWS V14.01,2013-12-02 22:54:00,
2013-12-02 17:55:00,47.2,46.7,29.81,SW,214,0.0,0.0,98,0.00,,---,0.05,VWS V14.01,2013-12-02 22:55:00,
2013-12-02 17:59:00,47.2,46.9,29.82,SW,214,0.0,0.0,99,0.00,,---,0.06,VWS V14.01,2013-12-02 22:59:00,
2013-12-02 18:00:00,47.2,46.7,29.81,SW,214,0.0,0.0,98,0.01,,---,0.06,VWS V14.01,2013-12-02 23:00:00,
2013-12-02 18:05:00,47.2,46.9,29.82,SW,214,0.0,0.0,99,0.00,,---,0.06,VWS V14.01,2013-12-02 23:05:00,
2013-12-02 18:10:00,47.2,46.9,29.81,East,92,0.0,0.0,99,0.00,,---,0.06,VWS V14.01,2013-12-02 23:10:00,
2013-12-02 18:15:00,47.1,46.8,29.81,East,92,0.0,0.0,99,0.00,,---,0.06,VWS V14.01,2013-12-02 23:15:00,
2013-12-02 18:20:00,47.2,46.9,29.82,East,92,0.0,0.0,99,0.00,,---,0.06,VWS V14.01,2013-12-02 23:20:00,
2013-12-02 18:25:00,47.2,46.9,29.82,East,92,0.0,0.0,99,0.00,,---,0.06,VWS V14.01,2013-12-02 23:25:00,
2013-12-02 18:30:00,47.2,46.9,29.82,East,92,0.0,0.0,99,0.00,,---,0.06,VWS V14.01,2013-12-02 23:30:00,
2013-12-02 18:35:00,47.2,46.9,29.81,East,92,0.0,0.0,99,0.00,,---,0.06,VWS V14.01,2013-12-02 23:35:00,
2013-12-02 18:40:00,47.2,46.9,29.81,East,92,0.0,0.0,99,0.00,,---,0.06,VWS V14.01,2013-12-02 23:40:00,
2013-12-02 18:45:00,47.2,46.9,29.81,East,92,0.0,0.0,99,0.00,,---,0.06,VWS V14.01,2013-12-02 23:45:00,
2013-12-02 18:50:00,47.1,46.8,29.81,East,92,0.0,0.0,99,0.01,,---,0.07,VWS V14.01,2013-12-02 23:50:00,
2013-12-02 18:55:00,47.2,46.9,29.81,East,92,0.0,0.0,99,0.01,,---,0.07,VWS V14.01,2013-12-02 23:55:00,
2013-12-02 19:00:00,47.1,46.8,29.82,East,92,0.0,0.0,99,0.01,,---,0.07,VWS V14.01,2013-12-03 00:00:00,
2013-12-02 19:05:00,47.2,46.9,29.81,East,92,0.0,0.0,99,0.01,,---,0.07,VWS V14.01,2013-12-03 00:05:00,
2013-12-02 19:10:00,47.2,46.9,29.82,East,92,0.0,0.0,99,0.01,,---,0.07,VWS V14.01,2013-12-03 00:10:00,
2013-12-02 19:15:00,47.2,46.9,29.81,East,92,0.0,0.0,99,0.01,,---,0.07,VWS V14.01,2013-12-03 00:15:00,
2013-12-02 19:20:00,47.1,46.8,29.81,East,92,0.0,0.0,99,0.01,,---,0.07,VWS V14.01,2013-12-03 00:20:00,
2013-12-02 19:25:00,47.1,46.8,29.81,East,92,0.0,0.0,99,0.01,,---,0.07,VWS V14.01,2013-12-03 00:25:00,
2013-12-02 19:30:00,47.1,46.8,29.81,East,92,0.0,0.0,99,0.01,,---,0.07,VWS V14.01,2013-12-03 00:30:00,
2013-12-02 19:35:00,47.1,46.8,29.81,East,92,0.0,0.0,99,0.01,,---,0.07,VWS V14.01,2013-12-03 00:35:00,
2013-12-02 19:40:00,47.1,46.8,29.81,East,92,0.0,0.0,99,0.01,,---,0.07,VWS V14.01,2013-12-03 00:40:00,
2013-12-02 19:45:00,47.1,46.8,29.81,East,92,0.0,0.0,99,0.01,,---,0.07,VWS V14.01,2013-12-03 00:45:00,
2013-12-02 19:50:00,47.2,46.9,29.82,East,92,0.0,0.0,99,0.00,,---,0.07,VWS V14.01,2013-12-03 00:50:00,
2013-12-02 19:55:00,47.2,46.9,29.81,East,92,0.0,0.0,99,0.00,,---,0.07,VWS V14.01,2013-12-03 00:55:00,
2013-12-02 20:00:00,47.3,47.0,29.82,East,92,0.0,0.0,99,0.00,,---,0.07,VWS V14.01,2013-12-03 01:00:00,
2013-12-02 20:05:00,47.3,47.0,29.82,East,92,0.0,0.0,99,0.00,,---,0.07,VWS V14.01,2013-12-03 01:05:00,
2013-12-02 20:10:00,47.3,47.0,29.82,East,92,0.0,0.0,99,0.00,,---,0.07,VWS V14.01,2013-12-03 01:10:00,
2013-12-02 20:15:00,47.3,47.0,29.82,East,92,0.0,0.0,99,0.00,,---,0.07,VWS V14.01,2013-12-03 01:15:00,
2013-12-02 20:20:00,47.3,47.0,29.82,East,92,0.0,0.0,99,0.00,,---,0.07,VWS V14.01,2013-12-03 01:20:00,
2013-12-02 20:25:00,47.4,47.1,29.82,East,92,0.0,0.0,99,0.00,,---,0.07,VWS V14.01,2013-12-03 01:25:00,
2013-12-02 20:30:00,47.4,47.1,29.82,East,92,0.0,0.0,99,0.00,,---,0.07,VWS V14.01,2013-12-03 01:30:00,
2013-12-02 20:35:00,47.4,47.1,29.82,East,92,0.0,0.0,99,0.00,,---,0.07,VWS V14.01,2013-12-03 01:35:00,
2013-12-02 20:40:00,47.5,47.2,29.82,East,92,0.0,0.0,99,0.00,,---,0.07,VWS V14.01,2013-12-03 01:40:00,
2013-12-02 20:45:00,47.5,47.2,29.82,East,92,0.0,0.0,99,0.00,,---,0.07,VWS V14.01,2013-12-03 01:45:00,
2013-12-02 20:50:00,47.5,47.2,29.83,East,92,0.0,0.0,99,0.00,,---,0.07,VWS V14.01,2013-12-03 01:50:00,
2013-12-02 20:55:00,47.6,47.3,29.83,East,92,0.0,0.0,99,0.00,,---,0.07,VWS V14.01,2013-12-03 01:55:00,
2013-12-02 21:00:00,47.6,47.3,29.83,East,92,0.0,0.0,99,0.00,,---,0.07,VWS V14.01,2013-12-03 02:00:00,
2013-12-02 21:05:00,47.6,47.3,29.83,East,92,0.0,0.0,99,0.00,,---,0.07,VWS V14.01,2013-12-03 02:05:00,
2013-12-02 21:10:00,47.5,47.2,29.83,East,92,0.0,0.0,99,0.00,,---,0.07,VWS V14.01,2013-12-03 02:10:00,
2013-12-02 21:15:00,47.5,47.2,29.83,East,92,0.0,0.0,99,0.00,,---,0.07,VWS V14.01,2013-12-03 02:15:00,
2013-12-02 21:20:00,47.5,47.2,29.83,East,92,0.0,0.0,99,0.00,,---,0.07,VWS V14.01,2013-12-03 02:20:00,
2013-12-02 21:25:00,47.4,47.1,29.83,East,92,0.0,0.0,99,0.00,,---,0.07,VWS V14.01,2013-12-03 02:25:00,
2013-12-02 21:30:00,47.4,47.1,29.83,East,92,0.0,0.0,99,0.00,,---,0.07,VWS V14.01,2013-12-03 02:30:00,
2013-12-02 21:35:00,47.4,47.1,29.83,East,92,0.0,0.0,99,0.02,,---,0.09,VWS V14.01,2013-12-03 02:35:00,
2013-12-02 21:40:00,47.4,47.1,29.83,East,92,0.0,0.0,99,0.02,,---,0.09,VWS V14.01,2013-12-03 02:40:00,
2013-12-02 21:45:00,47.4,47.1,29.83,East,92,0.0,0.0,99,0.02,,---,0.09,VWS V14.01,2013-12-03 02:45:00,
2013-12-02 21:50:00,47.4,47.1,29.84,East,92,0.0,0.0,99,0.02,,---,0.09,VWS V14.01,2013-12-03 02:50:00,
2013-12-02 21:55:00,47.4,47.1,29.83,East,92,0.0,0.0,99,0.02,,---,0.09,VWS V14.01,2013-12-03 02:55:00,
2013-12-02 22:00:00,47.4,47.1,29.83,East,92,0.0,0.0,99,0.02,,---,0.09,VWS V14.01,2013-12-03 03:00:00,
2013-12-02 22:05:00,47.4,47.1,29.83,East,94,0.0,0.0,99,0.02,,---,0.09,VWS V14.01,2013-12-03 03:05:00,
2013-12-02 22:10:00,47.4,47.1,29.83,East,94,0.0,0.0,99,0.02,,---,0.09,VWS V14.01,2013-12-03 03:10:00,
2013-12-02 22:15:00,47.4,47.1,29.83,East,94,0.0,0.0,99,0.02,,---,0.09,VWS V14.01,2013-12-03 03:15:00,
2013-12-02 22:20:00,47.4,47.1,29.83,SE,128,0.0,0.0,99,0.02,,---,0.09,VWS V14.01,2013-12-03 03:20:00,
2013-12-02 22:25:00,47.4,47.1,29.83,SE,128,0.0,0.0,99,0.02,,---,0.09,VWS V14.01,2013-12-03 03:25:00,
2013-12-02 22:30:00,47.4,47.1,29.83,SE,128,0.0,0.0,99,0.03,,---,0.10,VWS V14.01,2013-12-03 03:30:00,
2013-12-02 22:35:00,47.4,47.1,29.83,SE,128,0.0,0.0,99,0.01,,---,0.10,VWS V14.01,2013-12-03 03:35:00,
2013-12-02 22:40:00,47.4,47.1,29.83,SE,127,0.0,0.0,99,0.01,,---,0.10,VWS V14.01,2013-12-03 03:40:00,
2013-12-02 22:45:00,47.4,47.1,29.83,SE,127,0.0,0.0,99,0.01,,---,0.10,VWS V14.01,2013-12-03 03:45:00,
2013-12-02 22:50:00,47.4,47.1,29.83,SE,127,0.0,0.0,99,0.01,,---,0.10,VWS V14.01,2013-12-03 03:50:00,
2013-12-02 22:55:00,47.4,47.1,29.83,SE,128,0.0,0.0,99,0.01,,---,0.10,VWS V14.01,2013-12-03 03:55:00,
2013-12-02 23:00:00,47.4,47.1,29.83,SE,127,0.0,0.0,99,0.01,,---,0.10,VWS V14.01,2013-12-03 04:00:00,
2013-12-02 23:05:00,47.4,47.1,29.83,SE,127,0.0,0.0,99,0.01,,---,0.10,VWS V14.01,2013-12-03 04:05:00,
2013-12-02 23:10:00,47.4,47.1,29.83,SE,127,0.0,0.0,99,0.01,,---,0.10,VWS V14.01,2013-12-03 04:10:00,
2013-12-02 23:15:00,47.4,47.1,29.84,SE,127,0.0,0.0,99,0.01,,---,0.10,VWS V14.01,2013-12-03 04:15:00,
2013-12-02 23:20:00,47.4,47.1,29.84,SE,127,0.0,0.0,99,0.01,,---,0.10,VWS V14.01,2013-12-03 04:20:00,
2013-12-02 23:25:00,47.4,47.1,29.83,SE,127,0.0,0.0,99,0.01,,---,0.10,VWS V14.01,2013-12-03 04:25:00,
2013-12-02 23:30:00,47.4,47.1,29.84,SE,127,0.0,0.0,99,0.01,,---,0.10,VWS V14.01,2013-12-03 04:30:00,
2013-12-02 23:35:00,47.4,47.1,29.84,SE,127,0.0,0.0,99,0.00,,---,0.10,VWS V14.01,2013-12-03 04:35:00,
2013-12-02 23:40:00,47.4,47.1,29.84,SE,127,0.0,0.0,99,0.00,,---,0.10,VWS V14.01,2013-12-03 04:40:00,
2013-12-02 23:45:00,47.5,47.2,29.84,SE,127,0.0,0.0,99,0.00,,---,0.10,VWS V14.01,2013-12-03 04:45:00,
2013-12-02 23:50:00,47.5,47.2,29.84,SE,127,0.0,0.0,99,0.00,,---,0.10,VWS V14.01,2013-12-03 04:50:00,
2013-12-02 23:55:00,47.5,47.2,29.83,SE,127,0.0,0.0,99,0.00,,---,0.10,VWS V14.01,2013-12-03 04:55:00,